User: anonymous   Login
Location: Caltech
(34.1382°N, 118.1253°W)
Time: 19:41:09
(UTC-08:00)
Language:

AO-Echo - Orbit

View from above orbital plane
View from above orbital plane
View from above satellite
View from above satellite

Ground track
Ground track

The orbit data is extracted from the following two-line orbital elements,

1 28375U 04025K   14352.43464527  .00000393  00000-0  12891-3 0   176
2 28375 098.2743 293.2800 0083680 154.8976 205.6317 14.41530765550458
Epoch (UTC): 18 December 2014 10:25:53
Eccentricity: 0.0083680
inclination: 98.2743°
perigee height: 694 km
apogee height: 813 km
right ascension of ascending node: 293.2800°
argument of perigee: 154.8976°
revolutions per day: 14.41530765
mean anomaly at epoch: 205.6317°
orbit number at epoch: 55045

The dashed part of the orbit path shows where the satellite is in the earth's shadow,  

DLR